Mackall AAF, NC

12:33 AM EST on December 14, 2017 (GMT -0500)
Mackall Army Air Field

Weather History for KHFF - November, 2013

Change the Weather History Date:

Wednesday, November 27, 2013

  Actual Average Record
Temperature  
Mean Temperature 47 °F -  
Max Temperature 66 °F 62 °F 82 °F (2001)
Min Temperature 28 °F 36 °F 24 °F (2008)
Degree Days  
Heating Degree Days 18    
Moisture  
Dew Point 42 °F    
Average Humidity 89    
Maximum Humidity 100    
Minimum Humidity 60    
Precipitation  
Precipitation 0.92 in - - ()
Sea Level Pressure  
Sea Level Pressure 29.69 in    
Wind  
Wind Speed 9 mph (NNW)    
Max Wind Speed 16 mph    
Max Gust Speed 28 mph    
Visibility 10 miles    
Events Rain , Thunderstorm    
Averages and records for this station are not official NWS values.
T = Trace of Precipitation, MM = Missing Value Source: NWS Daily Summary

Daily Weather History Graph

Daily Weather History Graph

Search for Another Location

Airport or City:

Trip Planner

Search our weather history database for the weather conditions in past years. The results will help you decide how hot, cold, wet, or windy it might be!

Date:

Astronomy

Nov. 27, 2013 Rise Set
Actual Time 7:04 AM EST 5:06 PM EST
Civil Twilight 6:36 AM EST 5:34 PM EST
Nautical Twilight 6:05 AM EST 6:05 PM EST
Astronomical Twilight 5:35 AM EST 6:36 PM EST
Moon 1:17 AM EST (11/27) 1:32 PM EST (11/27)
Length of Visible Light 10h 57m
Length of Day
10h 02m
Waning Crescent, 32% of the Moon is Illuminated
Nov 27
Waning Crescent
Dec 2
New
Dec 9
First Quarter
Dec 17
Full
Dec 25
Last Quarter

Hourly Weather History & Observations

Time (EST) Temp. Windchill Dew Point Humidity Pressure Visibility Wind Dir Wind Speed Gust Speed Precip Events Conditions
12:56 AM 66.7 °F - 64.4 °F 92% 29.56 in 12.0 mi SSW 8.1 mph 16.1 mph N/A   Overcast
12:59 AM 66.2 °F - 64.4 °F 94% 29.55 in 12.0 mi SSW 6.9 mph - N/A Rain Light Rain
1:10 AM 66.2 °F - 64.4 °F 94% 29.55 in 6.0 mi SSW 8.1 mph - N/A Rain Light Rain
1:48 AM 62.6 °F - 60.8 °F 94% 29.53 in 4.0 mi NW 4.6 mph - N/A Rain Light Rain Showers
1:56 AM 61.3 °F - 59.5 °F 94% 29.55 in 4.0 mi NW 12.7 mph 15.0 mph 0.01 in Rain Light Rain Showers
2:36 AM 50.0 °F - 48.2 °F 94% 29.57 in 5.0 mi NNW 6.9 mph 18.4 mph N/A Rain Heavy Rain
2:50 AM 50.0 °F - 48.2 °F 94% 29.56 in 4.0 mi NNW 5.8 mph - N/A Rain , Thunderstorm Heavy Thunderstorms and Rain
2:51 AM 50.0 °F - 48.2 °F 94% 29.56 in 5.0 mi NNW 6.9 mph - N/A Rain Heavy Rain Showers
2:56 AM 49.6 °F - 48.7 °F 97% 29.57 in 6.0 mi NNW 4.6 mph - 0.29 in Rain Heavy Rain Showers
3:01 AM 50.0 °F - 48.2 °F 94% 29.55 in 7.0 mi North 4.6 mph - N/A Rain Heavy Rain Showers
3:22 AM 50.0 °F - 50.0 °F 100% 29.54 in 5.0 mi North 3.5 mph - N/A Rain Rain Showers
3:56 AM 49.8 °F - 49.1 °F 97% 29.55 in 12.0 mi North 5.8 mph - 0.20 in Rain Rain Showers
4:01 AM 50.0 °F - 48.2 °F 94% 29.55 in 12.0 mi North 6.9 mph 15.0 mph N/A Rain Light Rain Showers
4:53 AM 48.2 °F - 46.4 °F 93% 29.53 in 12.0 mi North 5.8 mph - N/A Rain Light Rain Showers
4:56 AM 48.0 °F - 47.1 °F 97% 29.54 in 12.0 mi North 6.9 mph - 0.11 in Rain Light Rain Showers
5:06 AM 48.2 °F - 46.4 °F 93% 29.53 in 12.0 mi North 4.6 mph - N/A Rain Light Rain Showers
5:15 AM 48.2 °F - 46.4 °F 93% 29.53 in 12.0 mi North 4.6 mph - N/A   Mostly Cloudy
5:27 AM 48.2 °F - 46.4 °F 93% 29.54 in 12.0 mi NNW 6.9 mph - N/A Rain Light Rain Showers
5:38 AM 48.2 °F - 46.4 °F 93% 29.54 in 12.0 mi NNW 8.1 mph - N/A Rain Light Rain Showers
5:56 AM 47.8 °F - 46.8 °F 96% 29.56 in 12.0 mi NNW 10.4 mph - 0.02 in Rain Light Rain Showers
6:03 AM 48.2 °F - 46.4 °F 93% 29.54 in 12.0 mi NNW 10.4 mph - N/A Rain Light Rain Showers
6:56 AM 47.1 °F - 46.2 °F 97% 29.54 in 12.0 mi North 9.2 mph - 0.11 in Rain Light Rain
7:06 AM 48.2 °F - 46.4 °F 93% 29.55 in 10.0 mi North 8.1 mph - N/A Rain Light Rain
7:27 AM 46.4 °F 41.9 °F 46.4 °F 100% 29.57 in 10.0 mi NNW 9.2 mph - N/A Rain Rain
7:48 AM 46.4 °F 42.4 °F 46.4 °F 100% 29.58 in 12.0 mi NNW 8.1 mph - N/A Rain Rain
7:56 AM 46.9 °F - 45.7 °F 95% 29.57 in 12.0 mi North 9.2 mph - 0.12 in Rain Rain
8:01 AM 46.4 °F 41.9 °F 46.4 °F 100% 29.58 in 12.0 mi NNW 9.2 mph - N/A Rain Rain
8:11 AM 46.4 °F 41.1 °F 46.4 °F 100% 29.56 in 12.0 mi North 11.5 mph - N/A Rain Rain
8:27 AM 46.4 °F 42.9 °F 46.4 °F 100% 29.57 in 12.0 mi NNW 6.9 mph - N/A   Mostly Cloudy
8:28 AM 46.4 °F 42.4 °F 46.4 °F 100% 29.56 in 12.0 mi NNW 8.1 mph - N/A Rain Light Rain Showers
8:33 AM 46.4 °F 42.4 °F 46.4 °F 100% 29.56 in 12.0 mi NNW 8.1 mph - N/A Rain Light Rain Showers
8:56 AM 47.3 °F - 46.0 °F 95% 29.59 in 12.0 mi North 6.9 mph - 0.02 in Rain Light Rain Showers
9:56 AM 45.5 °F 40.3 °F 43.7 °F 93% 29.60 in 12.0 mi NNW 10.4 mph - 0.02 in Rain Light Rain Showers
9:59 AM 46.4 °F 41.1 °F 42.8 °F 87% 29.59 in 12.0 mi NNW 11.5 mph - N/A   Overcast
10:04 AM 44.6 °F 38.8 °F 42.8 °F 93% 29.59 in 12.0 mi NNW 11.5 mph 18.4 mph N/A   Mostly Cloudy
10:15 AM 44.6 °F 39.7 °F 42.8 °F 93% 29.61 in 12.0 mi NNW 9.2 mph 19.6 mph N/A   Mostly Cloudy
10:20 AM 44.6 °F 39.2 °F 42.8 °F 93% 29.61 in 12.0 mi NNW 10.4 mph - N/A   Mostly Cloudy
10:35 AM 44.6 °F 38.4 °F 41.0 °F 87% 29.61 in 12.0 mi NNW 12.7 mph 21.9 mph N/A Rain Light Rain Showers
10:56 AM 43.5 °F 37.1 °F 41.2 °F 91% 29.64 in 11.0 mi NW 12.7 mph 19.6 mph N/A Rain Light Rain Showers
11:08 AM 42.8 °F 35.8 °F 39.2 °F 87% 29.65 in 12.0 mi NW 13.8 mph 20.7 mph N/A   Overcast
11:24 AM 42.8 °F 35.4 °F 39.2 °F 87% 29.66 in 12.0 mi NW 15.0 mph 24.2 mph N/A Rain Light Rain Showers
11:35 AM 41.0 °F 33.5 °F 39.2 °F 93% 29.67 in 5.0 mi WNW 13.8 mph 19.6 mph N/A Rain Light Rain Showers
11:56 AM 40.5 °F 33.2 °F 38.5 °F 93% 29.69 in 12.0 mi WNW 12.7 mph 27.6 mph N/A Rain Light Rain Showers
12:22 PM 39.2 °F 31.6 °F 39.2 °F 100% 29.69 in 3.0 mi NW 12.7 mph 25.3 mph N/A Rain Light Rain Showers
12:27 PM 39.2 °F 30.8 °F 39.2 °F 100% 29.69 in 2.8 mi NW 15.0 mph 24.2 mph N/A Rain Light Rain
12:33 PM 39.2 °F 32.0 °F 39.2 °F 100% 29.69 in 2.8 mi NW 11.5 mph 24.2 mph N/A Rain Light Rain
12:38 PM 41.0 °F 33.5 °F 39.2 °F 93% 29.69 in 3.0 mi WNW 13.8 mph 20.7 mph N/A Rain Light Rain
12:56 PM 39.7 °F 32.3 °F 38.5 °F 95% 29.70 in 5.0 mi NW 12.7 mph 19.6 mph 0.01 in Rain Light Rain
1:17 PM 39.2 °F 30.8 °F 37.4 °F 93% 29.71 in 12.0 mi NW 15.0 mph 21.9 mph N/A Rain Light Rain
1:56 PM 39.0 °F 31.4 °F 36.5 °F 91% 29.75 in 12.0 mi NW 12.7 mph 24.2 mph 0.01 in Rain Light Rain
2:43 PM 39.2 °F 30.5 °F 33.8 °F 81% 29.79 in 12.0 mi NNW 16.1 mph 24.2 mph N/A Rain Light Rain
2:53 PM 39.2 °F 32.0 °F 33.8 °F 81% 29.80 in 12.0 mi NNW 11.5 mph 23.0 mph N/A Rain Light Rain
2:56 PM 38.8 °F 31.2 °F 34.9 °F 86% 29.81 in 12.0 mi NNW 12.7 mph 19.6 mph N/A Rain Light Rain
2:59 PM 39.2 °F 30.8 °F 33.8 °F 81% 29.80 in 12.0 mi NW 15.0 mph 23.0 mph N/A   Mostly Cloudy
3:02 PM 39.2 °F 31.2 °F 33.8 °F 81% 29.80 in 12.0 mi NW 13.8 mph 23.0 mph N/A Rain Light Rain Showers
3:31 PM 39.2 °F 31.6 °F 33.8 °F 81% 29.83 in 12.0 mi NW 12.7 mph 17.3 mph N/A   Mostly Cloudy
3:36 PM 39.2 °F 33.0 °F 35.6 °F 87% 29.84 in 12.0 mi NW 9.2 mph 17.3 mph N/A   Mostly Cloudy
3:46 PM 39.2 °F 32.5 °F 33.8 °F 81% 29.85 in 12.0 mi NW 10.4 mph - N/A Rain Light Rain Showers
3:51 PM 39.2 °F 33.0 °F 35.6 °F 87% 29.85 in 12.0 mi NW 9.2 mph - N/A Rain Light Rain Showers
3:56 PM 39.0 °F 31.0 °F 34.5 °F 84% 29.87 in 12.0 mi WNW 13.8 mph 19.6 mph N/A Rain Light Rain Showers
4:11 PM 39.2 °F 34.2 °F 33.8 °F 81% 29.87 in 12.0 mi NW 6.9 mph - N/A   Mostly Cloudy
4:16 PM 39.2 °F 33.0 °F 33.8 °F 81% 29.87 in 12.0 mi NW 9.2 mph - N/A   Mostly Cloudy
4:56 PM 39.2 °F 33.6 °F 30.6 °F 71% 29.91 in 12.0 mi NW 8.1 mph - N/A   Mostly Cloudy
5:56 PM 37.9 °F 33.5 °F 31.3 °F 77% 29.96 in 12.0 mi NW 5.8 mph - N/A   Mostly Cloudy
6:56 PM 36.5 °F 31.0 °F 26.6 °F 67% 30.01 in 12.0 mi NNW 6.9 mph - N/A   Clear
7:56 PM 34.3 °F 25.9 °F 21.6 °F 60% 30.06 in 12.0 mi NW 11.5 mph 18.4 mph N/A   Clear
8:56 PM 32.4 °F 24.6 °F 20.5 °F 62% 30.12 in 12.0 mi NNW 9.2 mph - N/A   Clear
9:56 PM 31.3 °F 24.7 °F 19.4 °F 61% 30.16 in 12.0 mi NW 6.9 mph 16.1 mph N/A   Clear
10:56 PM 28.9 °F 25.2 °F 20.1 °F 70% 30.20 in 12.0 mi NW 3.5 mph - N/A   Clear
11:56 PM 28.2 °F 23.1 °F 20.3 °F 72% 30.22 in 12.0 mi NNW 4.6 mph - N/A   Clear